Dewpoint
69 71 72 72 72 72 72 72 73 73 73 73 73 72 72 72 72 72 72 72 71 71 71 70 70 70 70 69 68 68 69 70 71 71 70 69 66 66 66 70 70 67 69
69 71 72 72 72 72 73 73 72 73 73 73 73 72 72 72 72 72 72 71 71 70 69 69 69 70 69 68 69 70 70 70 69 69 70 68 66 65 66 68 69 68 70
69 70 71 72 72 72 73 73 73 73 72 72 72 72 72 72 72 72 72 71 71 70 69 69 69 68 68 69 69 69 68 68 67 67 67 68 67 68 66 68 68 68 67
68 70 71 72 72 72 72 72 72 72 72 72 72 72 72 72 72 72 71 71 71 70 69 68 68 68 68 68 67 67 67 67 67 67 62 63 63 70 69 69 68 68 68
68 70 71 71 71 72 72 72 72 72 72 72 71 71 71 70 71 71 71 71 70 69 68 68 68 67 67 67 66 66 66 66 67 61 57 61 63 69 70 70 69 68 67
68 70 70 71 71 71 72 72 71 71 71 71 71 71 71 70 70 70 70 70 70 68 68 67 67 67 67 66 66 66 65 66 62 59 65 68 69 70 70 71 71 71 70
68 69 70 70 71 71 72 71 71 70 70 70 70 70 70 70 70 70 70 69 69 68 67 67 67 67 66 66 66 66 66 66 61 59 66 67 70 71 71 70 70 71 71
67 68 69 71 71 71 71 70 70 70 70 70 70 70 70 70 69 69 69 69 68 68 68 67 66 66 66 66 66 66 66 66 63 63 67 69 69 69 68 68 67 68 68
67 68 68 69 70 70 69 68 68 68 68 68 68 68 69 68 68 69 69 69 69 69 68 68 68 67 67 66 66 66 66 66 65 67 67 67 68 68 67 67 67 66 66
67 67 68 68 68 67 66 67 68 67 67 67 67 67 67 68 68 68 69 69 69 69 69 69 68 68 68 67 67 66 65 66 65 67 67 68 68 67 66 65 65 64 63
66 67 67 67 67 67 66 67 68 67 67 67 67 68 67 67 68 68 68 68 67 67 67 68 68 67 67 68 68 65 64 63 62 64 65 67 66 66 65 64 62 61 61
65 66 67 67 66 66 65 65 64 65 66 65 63 65 68 67 66 67 67 66 66 65 67 67 67 66 66 67 64 64 61 60 59 60 62 64 64 65 64 62 60 59 57
65 65 65 65 66 65 64 67 66 64 63 62 61 62 63 65 64 64 67 66 65 64 64 64 64 63 65 63 62 61 59 58 57 58 59 60 59 60 61 59 56 55 55
63 63 64 65 65 64 63 63 61 60 60 60 61 62 62 62 61 60 60 61 59 59 57 62 64 64 61 59 54 53 56 57 57 56 56 56 55 53 55 54 53 52 52
62 62 63 62 61 62 62 61 59 59 59 59 59 58 58 60 59 60 57 54 54 53 54 55 60 61 58 57 53 50 51 55 54 55 53 54 53 50 50 51 51 51 51
61 61 61 60 60 59 59 58 58 58 59 55 55 54 54 54 54 53 51 50 50 48 49 48 50 58 58 53 49 49 49 50 53 53 51 51 52 51 49 50 50 51 51
60 60 59 58 58 57 57 56 56 57 56 53 51 50 50 50 50 50 48 47 49 45 45 48 55 57 55 54 50 49 49 46 42 51 49 48 49 52 50 49 48 49 49
59 58 58 57 57 57 57 56 53 53 52 52 50 49 47 48 47 46 44 46 46 45 48 52 55 54 52 51 50 46 43 39 36 39 42 43 44 45 49 48 47 47 47
58 58 57 57 57 56 52 51 51 50 49 47 46 47 46 47 45 44 45 46 46 46 48 50 50 53 52 51 49 46 39 35 33 37 37 37 40 42 44 47 46 47 47
54 54 53 51 51 51 51 48 48 45 44 43 43 44 45 46 47 45 45 45 46 46 46 44 41 43 43 44 48 46 43 37 36 37 36 37 37 38 41 42 42 42 48
53 51 50 50 50 49 47 46 45 45 42 42 42 43 43 44 45 44 44 45 45 46 46 46 43 39 41 43 49 49 46 38 37 38 37 37 35 35 39 38 39 38 40
53 51 50 49 49 49 48 46 45 44 42 42 42 42 42 43 43 44 44 44 43 44 44 44 44 41 42 43 41 46 43 41 39 38 38 38 36 35 38 37 39 38 39
52 51 50 49 48 49 47 43 42 41 42 41 39 39 41 43 44 44 44 44 44 45 44 44 43 43 41 42 42 40 35 34 38 40 36 36 37 38 37 38 37 39 40
52 52 50 50 49 49 44 42 39 39 40 41 40 40 40 41 42 43 44 43 44 44 44 43 43 43 40 39 39 39 38 36 34 33 36 36 35 35 38 38 38 38 39
52 52 51 50 49 46 44 42 42 40 40 40 40 39 38 40 41 43 43 43 44 44 44 44 44 42 43 39 37 37 36 36 36 34 31 33 35 35 37 38 38 38 38
53 53 52 49 48 46 45 44 41 39 40 39 39 39 39 40 42 42 42 43 43 43 43 43 42 42 41 40 40 38 37 35 35 34 33 33 32 33 35 37 36 37 37
Lifted_Index
-2 -2 -2 -2 -2 -2 -2 -2 -3 -3 -3 -2 -2 -2 -2 -2 -2 -3 -3 -3 -3 -3 -3 -3 -3 -3 -3 -2 -2 -2 -2 -2 -3 -3 -3 -2 -1 -0 -0 -1 -2 -2 -3
-2 -2 -2 -2 -2 -2 -2 -2 -3 -3 -3 -2 -2 -2 -1 -2 -2 -2 -3 -3 -2 -2 -2 -2 -2 -2 -2 -2 -1 -1 -1 -1 -2 -2 -2 -2 -1 -0 -0 -0 -1 -2 -2
-2 -2 -2 -3 -3 -3 -3 -3 -3 -2 -2 -2 -2 -1 -1 -1 -2 -2 -2 -2 -2 -2 -2 -2 -2 -2 -1 -1 -1 -0 -0 0 0 -0 -1 -2 -1 -1 -1 -1 -1 -1 -1
-2 -2 -3 -3 -3 -3 -3 -3 -2 -2 -2 -2 -1 -1 -1 -1 -1 -1 -2 -2 -2 -2 -1 -1 -1 -1 -1 0 1 1 1 2 1 1 -1 -1 -1 -2 -2 -2 -1 -1 -0
-2 -2 -2 -2 -2 -2 -2 -2 -2 -2 -2 -2 -1 -1 -1 -1 -1 -1 -1 -1 -1 -1 -1 -1 -1 -0 0 1 2 2 2 3 2 1 -0 -1 -2 -2 -3 -2 -2 -1 -1
-2 -2 -2 -2 -2 -2 -2 -2 -2 -2 -2 -1 -1 -1 -0 -0 -0 -1 -1 -1 -1 -1 -0 -0 0 1 1 2 2 2 3 3 2 1 -0 -1 -2 -2 -3 -2 -2 -2 -2
-2 -2 -2 -2 -2 -2 -2 -2 -1 -1 -1 -1 -1 -0 -0 0 0 0 -0 -0 -0 -0 0 0 1 1 1 2 2 2 2 2 1 1 -0 -2 -2 -2 -2 -2 -2 -2 -2
-2 -2 -2 -2 -2 -2 -1 -1 -1 -1 -1 -0 -0 0 0 0 0 0 0 0 0 0 0 0 1 1 1 1 1 1 1 1 0 -1 -1 -2 -2 -1 -1 -0 -0 -0 -0
-2 -2 -2 -2 -1 -1 -0 0 0 0 0 0 0 0 0 1 0 0 0 -0 -0 -0 -0 -0 -0 -0 0 0 1 1 0 -0 -1 -1 -1 -1 -1 -0 0 1 1 1 1
-2 -2 -1 -1 -1 -1 0 1 1 1 1 0 0 0 0 -0 -0 -0 -0 -0 -0 -1 -1 -1 -1 -1 -1 -1 -1 -0 -1 -1 -1 -1 -1 -1 -0 1 1 2 2 2 2
-2 -2 -2 -2 -1 -0 0 1 1 1 0 -0 -0 -0 -0 -1 -1 -1 -1 -0 -0 -1 -1 -1 -1 -1 -1 -1 -1 -1 -1 -0 -0 0 0 0 1 1 2 2 2 2 2
-2 -2 -2 -2 -1 -1 -0 0 -0 -0 -0 -0 -0 -1 -1 -1 -1 -1 -1 -1 -1 -1 -1 -1 -1 -1 -1 -1 -1 -1 -0 0 0 1 1 2 2 3 3 3 3 4 4
-2 -2 -2 -2 -1 -1 -1 -1 -1 -0 0 0 -0 -0 -0 -1 -1 -1 -1 -1 -0 -0 -1 -1 -1 -1 -1 -1 -0 1 1 1 1 2 3 4 5 6 7 7 7 7 8
-2 -2 -2 -1 -1 -1 -1 -1 -1 -0 0 1 0 0 0 -0 -0 -0 -0 -0 0 0 1 0 -0 -0 -0 1 1 2 2 3 3 4 5 7 8 10 10 11 11 11 11
-2 -2 -2 -1 -1 -0 -0 -1 -0 0 0 0 0 0 0 1 1 1 1 1 2 2 2 2 1 1 1 2 3 4 4 5 6 7 8 9 11 12 13 13 13 13 13
-2 -1 -1 -1 -1 -0 0 -0 -0 0 0 1 1 2 2 3 3 4 4 4 4 5 5 4 3 2 3 4 5 6 6 7 8 9 11 12 13 13 13 13 13 13 13
-1 -1 -1 -1 -0 -0 -0 0 0 0 1 2 4 6 6 6 6 6 7 7 8 8 7 5 3 3 3 4 6 8 9 10 11 11 12 13 13 13 13 13 13 13 13
-0 -1 -1 -1 -0 -0 -0 0 1 2 3 5 8 9 9 9 9 9 10 10 10 9 7 5 3 3 4 5 6 8 10 12 13 13 13 14 14 13 13 13 13 13 13
-1 -1 -1 -1 -1 -0 1 2 3 4 5 7 9 10 10 10 10 11 11 11 10 9 7 5 4 4 5 5 7 8 10 12 13 14 14 14 14 14 13 13 13 13 12
-1 -1 -1 -1 -0 1 4 5 6 6 7 9 10 10 10 11 11 11 12 11 11 9 7 6 4 4 5 5 6 7 9 12 12 13 13 13 14 14 13 13 13 13 13
-0 -1 -1 -0 1 3 6 7 8 8 9 10 11 11 12 12 12 12 12 12 11 10 9 8 7 6 5 5 5 6 8 10 11 12 12 13 13 13 13 13 13 13 13
0 -0 -0 0 1 3 6 7 7 7 9 10 11 13 13 13 13 13 12 12 12 11 11 10 10 9 8 6 5 5 7 9 10 11 12 12 12 12 12 13 13 13 14
-0 -0 -0 -0 0 2 5 6 5 5 6 8 11 13 14 14 13 13 13 13 13 12 12 11 11 11 10 8 6 6 8 9 9 10 11 11 12 12 12 12 12 13 13
-0 -0 -0 -0 0 2 3 4 3 3 4 7 11 14 15 15 14 14 14 13 13 13 13 12 12 12 11 10 9 9 10 10 10 10 10 11 12 12 12 12 12 13 13
0 0 0 0 1 1 3 4 4 5 6 9 12 14 15 15 15 14 14 14 14 13 13 13 13 12 12 11 11 11 11 11 11 10 10 11 12 12 12 11 12 12 13
1 1 1 1 0 1 3 5 6 7 8 10 12 13 14 15 15 14 14 14 13 13 13 13 13 12 12 11 11 12 11 11 11 10 10 11 11 12 12 11 12 13 14